Regional Weather Roundup
Issued by NWS

Home | Current Version | Previous Version | Graphics & Text | Print | Product List | Glossary Off
Versions: 1 2 3 4 5 6 7 8 9 10 11 12 13 14 15 16 17 18 19 20 21 22 23 24 25 26 27 28 29 30 31 32 33 34 35 36 37 38 39 40 41 42 43 44 45 46 47 48 49 50

000
ASUS43 KTOP 010908
RWRKS

WEATHER ROUNDUP FOR KANSAS
NATIONAL WEATHER SERVICE GOODLAND KS
300 AM CST SUN FEB 01 2015

NOTE:  "FAIR" INDICATES FEW OR NO CLOUDS BELOW 12,000 FEET WITH NO
SIGNIFICANT WEATHER AND/OR OBSTRUCTIONS TO VISIBILITY.

KSZ001>006-013>018-027>032-041>047-011000-
NORTHWEST KANSAS

CITY           SKY/WX    TMP DP  RH WIND       PRES   REMARKS
GOODLAND       CLOUDY    21  18  88 N25G33    29.96R WCI   4
HAYS           CLOUDY    27  18  69 N29G35    29.85R WCI  11
HILL CITY      LGT SNOW  24  20  84 NW25      29.92R FOG     WCI   8
RUSSELL        LGT SNOW  29  27  92 NW28G41   29.82R FOG     WCI  14
$$

KSZ061>065-074>080-084>089-011000-
SOUTHWEST KANSAS

CITY           SKY/WX    TMP DP  RH WIND       PRES   REMARKS
DODGE CITY     CLOUDY    33  29  85 N23G31    29.85R WCI  21
ELKHART          N/A     37  28  70 N16         N/A  WCI  28
GARDEN CITY    CLOUDY    31  29  92 N24G33    29.88R WCI  17
LIBERAL        CLOUDY    37  32  81 N20G26    29.90R WCI  27
PRATT          FLURRIES  32  32 100 NW24      29.81R WCI  19
$$

KSZ066>073-081>083-090>101-011000-
SOUTHEAST KANSAS

CITY           SKY/WX    TMP DP  RH WIND       PRES   REMARKS
CHANUTE        LGT RAIN  40  40 100 S8        29.77F FOG
COFFEYVILLE    LGT RAIN  41  40  96 S9        29.78F FOG
HUTCHINSON     LGT RAIN  43  40  89 W14G21    29.73S
MEDICINE LODGE   N/A     37  35  92 NW24G32   29.77R WCI  26
NEWTON         CLOUDY    39  36  87 SW12      29.73F WCI  32
PARSONS        LGT RAIN  41  41 100 S9        29.78F FOG
WICHITA INTL   CLOUDY    42  41  96 SW9       29.73F
WICHITA JABRA  CLOUDY    41  41 100 SW12      29.73F
WICHITA MCCONL LGT RAIN  41  39  93 SW10      29.73F
WINFIELD       CLOUDY    42  29  59 SW13      29.76F HAZE
$$

KSZ007>012-019>026-033>040-048>060-102>105-011000-
NORTHEAST KANSAS

CITY           SKY/WX    TMP DP  RH WIND       PRES   REMARKS
CONCORDIA      LGT SNOW  32  32 100 NW12      29.77R FOG     WCI  23
EMPORIA        LGT RAIN  39  39 100 S10       29.72F WCI  32
LAWRENCE       LGT RAIN  33  32  96 E6        29.76F FOG
MANHATTAN      LGT RAIN  35  34  96 N5        29.74S FOG
MARYSVILLE     LGT SNOW  32  32 100 CALM      29.75F
OLATHE IND     MIX PCPN  35  35 100 SE7       29.76F FOG
OLATHE EXE     LGT RAIN  34  33  96 S7        29.75F FOG
SALINA         LGT RAIN  40  37  89 NW20      29.74R WCI  30
TOPEKA BILLARD LGT RAIN  33  32  96 E7        29.75F FOG
TOPEKA FORBES  LGT RAIN  37  36  96 SE6       29.73F FOG
$$


USA.gov is the U.S. government's official web portal to all federal, state and local government web resources and services.